Surface/Precipitation History
06/23/2017 21:33  to  6/24/2017 21:33
Change End Date:
Date/Time
(MDT)
Sf
Temp Chem Water Layer Surface Precipitation
Sfc Pvt Sub Frz Factor Pct Dpth DpthThk IcePct Cond Salin FI Type Intens Accum Rate
06/24/2017 21:31 Dry 77.0F - 125F - 0 - - - - - - - None None - -
06/24/2017 21:28 Dry 77.4F - 127F - 0 - - - - - - - None None - -
06/24/2017 21:18 Dry 78.3F - 130F - 0 - - - - - - - None None - -
06/24/2017 21:15 Dry 78.6F - 134F - 0 - - - - - - - None None - -
06/24/2017 21:07 Dry 79.3F - 129F - 0 - - - - - - - None None - -
06/24/2017 21:00 Dry 80.1F - 125F - 0 - - - - - - - None None - -
06/24/2017 20:57 Dry 80.4F - 128F - 0 - - - - - - - None None - -
06/24/2017 20:47 Dry 81.7F - 126F - 0 - - - - - - - None None - -
06/24/2017 20:45 Dry 81.9F - 123F - 0 - - - - - - - None None - -
06/24/2017 20:37 Dry 82.9F - 127F - 0 - - - - - - - None None - -
06/24/2017 20:30 Dry 84.2F - 127F - 0 - - - - - - - None None - -
06/24/2017 20:27 Dry 84.4F - 124F - 0 - - - - - - - None None - -
06/24/2017 20:17 Dry 86.2F - 122F - 0 - - - - - - - None None - -
06/24/2017 20:16 Dry 86.2F - 122F - 0 - - - - - - - None None - -
06/24/2017 20:07 Dry 87.8F - 123F - 0 - - - - - - - None None - -
Date/Time
(MDT)
Sf
Temp Chem Water Layer Surface Precipitation
Sfc Pvt Sub Frz Factor Pct Dpth DpthThk IcePct Cond Salin FI Type Intens Accum Rate
06/24/2017 20:00 Dry 89.1F - 123F - 0 - - - - - - - None None - -
06/24/2017 19:57 Dry 89.4F - 124F - 0 - - - - - - - None None - -
06/24/2017 19:47 Dry 92.3F - 123F - 0 - - - - - - - None None - -
06/24/2017 19:45 Dry 93.4F - 121F - 0 - - - - - - - None None - -
06/24/2017 19:37 Dry 96.3F - 117F - 0 - - - - - - - None None - -
06/24/2017 19:31 Dry 95.2F - 115F - 0 - - - - - - - None None - -
06/24/2017 19:27 Dry 96.8F - 115F - 0 - - - - - - - None None - -
06/24/2017 19:17 Dry 103.3F - 114F - 0 - - - - - - - None None - -
06/24/2017 19:16 Dry 103.6F - 116F - 0 - - - - - - - None None - -
06/24/2017 19:07 Dry 104.5F - 125F - 0 - - - - - - - None None - -
06/24/2017 19:00 Dry 104.9F - 130F - 0 - - - - - - - None None - -
06/24/2017 18:57 Dry 105.6F - 130F - 0 - - - - - - - None None - -
06/24/2017 18:47 Dry 106.9F - 131F - 0 - - - - - - - None None - -
06/24/2017 18:45 Dry 106.9F - 134F - 0 - - - - - - - None None - -
06/24/2017 18:37 Dry 106.3F - 130F - 0 - - - - - - - None None - -
Date/Time
(MDT)
Sf
Temp Chem Water Layer Surface Precipitation
Sfc Pvt Sub Frz Factor Pct Dpth DpthThk IcePct Cond Salin FI Type Intens Accum Rate
06/24/2017 18:31 Dry 106.3F - 127F - 0 - - - - - - - None None - -
06/24/2017 18:27 Dry 104.4F - 125F - 0 - - - - - - - None None - -
06/24/2017 18:17 Dry 104.4F - 117F - 0 - - - - - - - None None - -
06/24/2017 18:16 Dry 103.3F - 119F - 0 - - - - - - - None None - -
06/24/2017 18:07 Dry 108.9F - 123F - 0 - - - - - - - None None - -
06/24/2017 18:01 Dry 110.7F - 125F - 0 - - - - - - - None None - -
06/24/2017 17:57 Dry 109.2F - 123F - 0 - - - - - - - None None - -
06/24/2017 17:47 Dry 116.6F - 120F - 0 - - - - - - - None None - -
06/24/2017 17:46 Dry 116.4F - 121F - 0 - - - - - - - None None - -
06/24/2017 17:37 Dry 118.9F - 121F - 0 - - - - - - - None None - -
06/24/2017 17:31 Dry 118.9F - 120F - 0 - - - - - - - None None - -
06/24/2017 17:26 Dry 119.5F - 120F - 0 - - - - - - - None None - -
06/24/2017 17:16 Dry 119.3F - 117F - 0 - - - - - - - None None - -
06/24/2017 17:16 Dry 119.7F - 114F - 0 - - - - - - - None None - -
06/24/2017 17:06 Dry 122.7F - 123F - 0 - - - - - - - None None - -
Date/Time
(MDT)
Sf
Temp Chem Water Layer Surface Precipitation
Sfc Pvt Sub Frz Factor Pct Dpth DpthThk IcePct Cond Salin FI Type Intens Accum Rate
06/24/2017 17:01 Dry 123.3F - 119F - 0 - - - - - - - None None - -
06/24/2017 16:56 Dry 123.4F - 120F - 0 - - - - - - - None None - -
06/24/2017 16:46 Dry 124.0F - 123F - 0 - - - - - - - None None - -
06/24/2017 16:46 Dry 124.5F - 122F - 0 - - - - - - - None None - -
06/24/2017 16:36 Dry 124.5F - 122F - 0 - - - - - - - None None - -
06/24/2017 16:31 Dry 125.8F - 121F - 0 - - - - - - - None None - -
06/24/2017 16:26 Dry 125.4F - 125F - 0 - - - - - - - None None - -
06/24/2017 16:16 Dry 125.4F - 119F - 0 - - - - - - - None None - -
06/24/2017 16:16 Dry 125.2F - 121F - 0 - - - - - - - None None - -
06/24/2017 16:06 Dry 126.5F - 121F - 0 - - - - - - - None None - -
06/24/2017 16:01 Dry 126.5F - 124F - 0 - - - - - - - None None - -
06/24/2017 15:56 Dry 126.5F - 118F - 0 - - - - - - - None None - -
06/24/2017 15:46 Dry 127.4F - 120F - 0 - - - - - - - None None - -
06/24/2017 15:46 Dry 127.4F - 121F - 0 - - - - - - - None None - -
06/24/2017 15:36 Dry 127.2F - 117F - 0 - - - - - - - None None - -
Date/Time
(MDT)
Sf
Temp Chem Water Layer Surface Precipitation
Sfc Pvt Sub Frz Factor Pct Dpth DpthThk IcePct Cond Salin FI Type Intens Accum Rate
06/24/2017 15:31 Dry 127.8F - 123F - 0 - - - - - - - None None - -
06/24/2017 15:26 Dry 127.8F - 120F - 0 - - - - - - - None None - -
06/24/2017 15:16 Dry 128.3F - 121F - 0 - - - - - - - None None - -
06/24/2017 15:16 Dry 128.3F - 120F - 0 - - - - - - - None None - -
06/24/2017 15:06 Dry 127.8F - 122F - 0 - - - - - - - None None - -
06/24/2017 15:01 Dry 127.4F - 121F - 0 - - - - - - - None None - -
06/24/2017 14:56 Dry 127.0F - 123F - 0 - - - - - - - None None - -
06/24/2017 14:46 Dry 126.7F - 122F - 0 - - - - - - - None None - -
06/24/2017 14:45 Dry 126.7F - 122F - 0 - - - - - - - None None - -
06/24/2017 14:36 Dry 126.7F - 121F - 0 - - - - - - - None None - -
06/24/2017 14:30 Dry 126.3F - 117F - 0 - - - - - - - None None - -
06/24/2017 14:26 Dry 126.1F - 118F - 0 - - - - - - - None None - -
06/24/2017 14:16 Dry 126.1F - 118F - 0 - - - - - - - None None - -
06/24/2017 14:15 Dry 126.1F - 118F - 0 - - - - - - - None None - -
06/24/2017 14:06 Dry 125.8F - 117F - 0 - - - - - - - None None - -
Date/Time
(MDT)
Sf
Temp Chem Water Layer Surface Precipitation
Sfc Pvt Sub Frz Factor Pct Dpth DpthThk IcePct Cond Salin FI Type Intens Accum Rate
06/24/2017 14:01 Dry 124.5F - 114F - 0 - - - - - - - None None - -
06/24/2017 13:56 Dry 125.1F - 113F - 0 - - - - - - - None None - -
06/24/2017 13:46 Dry 124.7F - 114F - 0 - - - - - - - None None - -
06/24/2017 13:45 Dry 124.7F - 114F - 0 - - - - - - - None None - -
06/24/2017 13:36 Dry 122.0F - 116F - 0 - - - - - - - None None - -
06/24/2017 13:31 Dry 123.1F - 114F - 0 - - - - - - - None None - -
06/24/2017 13:26 Dry 122.0F - 114F - 0 - - - - - - - None None - -
06/24/2017 13:16 Dry 121.8F - 125F - 0 - - - - - - - None None - -
06/24/2017 13:16 Dry 122.2F - 115F - 0 - - - - - - - None None - -
06/24/2017 13:05 Dry 120.2F - 110F - 0 - - - - - - - None None - -
06/24/2017 13:00 Dry 120.4F - 119F - 0 - - - - - - - None None - -
06/24/2017 12:55 Dry 119.7F - 120F - 0 - - - - - - - None None - -
06/24/2017 12:45 Dry 118.2F - 124F - 0 - - - - - - - None None - -
06/24/2017 12:45 Dry 118.2F - 124F - 0 - - - - - - - None None - -
06/24/2017 12:35 Dry 117.7F - 128F - 0 - - - - - - - None None - -
Date/Time
(MDT)
Sf
Temp Chem Water Layer Surface Precipitation
Sfc Pvt Sub Frz Factor Pct Dpth DpthThk IcePct Cond Salin FI Type Intens Accum Rate
06/24/2017 12:30 Dry 116.4F - 128F - 0 - - - - - - - None None - -
06/24/2017 12:25 Dry 115.7F - 129F - 0 - - - - - - - None None - -
06/24/2017 12:16 Dry 113.5F - 121F - 0 - - - - - - - None None - -
06/24/2017 12:15 Dry 113.5F - 123F - 0 - - - - - - - None None - -
06/24/2017 12:05 Dry 112.3F - 114F - 0 - - - - - - - None None - -
06/24/2017 11:55 Dry 110.7F - 123F - 0 - - - - - - - None None - -
06/24/2017 11:45 Dry 108.5F - 121F - 0 - - - - - - - None None - -
06/24/2017 11:35 Dry 107.4F - 125F - 0 - - - - - - - None None - -
06/24/2017 11:31 Dry 106.9F - 121F - 0 - - - - - - - None None - -
06/24/2017 11:25 Dry 105.6F - 122F - 0 - - - - - - - None None - -
06/24/2017 11:16 Dry 104.0F - 125F - 0 - - - - - - - None None - -
06/24/2017 11:15 Dry 104.0F - 127F - 0 - - - - - - - None None - -
06/24/2017 11:05 Dry 101.1F - 127F - 0 - - - - - - - None None - -
06/24/2017 11:01 Dry 100.9F - 132F - 0 - - - - - - - None None - -
06/24/2017 10:55 Dry 99.5F - 131F - 0 - - - - - - - None None - -
Date/Time
(MDT)
Sf
Temp Chem Water Layer Surface Precipitation
Sfc Pvt Sub Frz Factor Pct Dpth DpthThk IcePct Cond Salin FI Type Intens Accum Rate
06/24/2017 10:46 Dry 97.7F - 130F - 0 - - - - - - - None None - -
06/24/2017 10:45 Dry 97.2F - 129F - 0 - - - - - - - None None - -
06/24/2017 10:35 Dry 95.2F - 133F - 0 - - - - - - - None None - -
06/24/2017 10:32 Dry 94.1F - 132F - 0 - - - - - - - None None - -
06/24/2017 10:25 Dry 92.7F - 129F - 0 - - - - - - - None None - -
06/24/2017 10:16 Dry 90.5F - 127F - 0 - - - - - - - None None - -
06/24/2017 10:15 Dry 90.5F - 128F - 0 - - - - - - - None None - -
06/24/2017 10:05 Dry 86.9F - 113F - 0 - - - - - - - None None - -
06/24/2017 10:01 Dry 85.3F - 118F - 0 - - - - - - - None None - -
06/24/2017 09:54 Dry 84.2F - 113F - 0 - - - - - - - None None - -
06/24/2017 09:46 Dry 81.0F - 113F - 0 - - - - - - - None None - -
06/24/2017 09:44 Dry 80.2F - 114F - 0 - - - - - - - None None - -
06/24/2017 09:34 Dry 77.2F - 112F - 0 - - - - - - - None None - -
06/24/2017 09:24 Dry 73.6F - 114F - 0 - - - - - - - None None - -
06/24/2017 09:14 Dry 69.4F - 121F - 0 - - - - - - - None None - -
Date/Time
(MDT)
Sf
Temp Chem Water Layer Surface Precipitation
Sfc Pvt Sub Frz Factor Pct Dpth DpthThk IcePct Cond Salin FI Type Intens Accum Rate
06/24/2017 09:04 Dry 61.7F - 119F - 0 - - - - - - - None None - -
06/24/2017 08:54 Dry 56.7F - 119F - 0 - - - - - - - None None - -
06/24/2017 08:44 Dry 57.9F - 125F - 0 - - - - - - - None None - -
06/24/2017 08:34 Dry 55.0F - 110F - 0 - - - - - - - None None - -
06/24/2017 08:24 Dry 55.4F - 111F - 0 - - - - - - - None None - -
06/24/2017 08:14 Dry 54.3F - 118F - 0 - - - - - - - None None - -
06/24/2017 08:04 Dry 53.6F - 116F - 0 - - - - - - - None None - -
06/24/2017 08:01 Dry 53.6F - 118F - 0 - - - - - - - None None - -
06/24/2017 07:54 Dry 53.6F - 117F - 0 - - - - - - - None None - -
06/24/2017 07:46 Dry 53.1F - 121F - 0 - - - - - - - None None - -
06/24/2017 07:44 Dry 52.9F - 122F - 0 - - - - - - - None None - -
06/24/2017 07:34 Dry 52.5F - 114F - 0 - - - - - - - None None - -
06/24/2017 07:31 Dry 52.3F - 130F - 0 - - - - - - - None None - -
06/24/2017 07:24 Dry 52.3F - 122F - 0 - - - - - - - None None - -
06/24/2017 07:16 Dry 52.3F - 122F - 0 - - - - - - - None None - -
Date/Time
(MDT)
Sf
Temp Chem Water Layer Surface Precipitation
Sfc Pvt Sub Frz Factor Pct Dpth DpthThk IcePct Cond Salin FI Type Intens Accum Rate
06/24/2017 07:14 Dry 52.3F - 120F - 0 - - - - - - - None None - -
06/24/2017 07:03 Dry 52.3F - 125F - 0 - - - - - - - None None - -
06/24/2017 07:01 Dry 52.3F - 125F - 0 - - - - - - - None None - -
06/24/2017 06:53 Dry 52.3F - 123F - 0 - - - - - - - None None - -
06/24/2017 06:45 Dry 52.3F - 123F - 0 - - - - - - - None None - -
06/24/2017 06:43 Dry 52.3F - 123F - 0 - - - - - - - None None - -
06/24/2017 06:33 Dry 52.3F - 124F - 0 - - - - - - - None None - -
06/24/2017 06:31 Dry 52.5F - 120F - 0 - - - - - - - None None - -
06/24/2017 06:23 Dry 52.5F - 127F - 0 - - - - - - - None None - -
06/24/2017 06:13 Dry 52.5F - 127F - 0 - - - - - - - None None - -
06/24/2017 06:03 Dry 52.5F - 126F - 0 - - - - - - - None None - -
06/24/2017 05:53 Dry 52.7F - 126F - 0 - - - - - - - None None - -
06/24/2017 05:43 Dry 52.9F - 126F - 0 - - - - - - - None None - -
06/24/2017 05:33 Dry 53.1F - 125F - 0 - - - - - - - None None - -
06/24/2017 05:23 Dry 53.2F - 124F - 0 - - - - - - - None None - -
Date/Time
(MDT)
Sf
Temp Chem Water Layer Surface Precipitation
Sfc Pvt Sub Frz Factor Pct Dpth DpthThk IcePct Cond Salin FI Type Intens Accum Rate
06/24/2017 05:13 Dry 53.4F - 125F - 0 - - - - - - - None None - -
06/24/2017 05:03 Dry 53.8F - 125F - 0 - - - - - - - None None - -
06/24/2017 05:01 Dry 53.8F - 126F - 0 - - - - - - - None None - -
06/24/2017 04:53 Dry 54.0F - 119F - 0 - - - - - - - None None - -
06/24/2017 04:46 Dry 54.1F - 107F - 0 - - - - - - - None None - -
06/24/2017 04:43 Dry 54.1F - 114F - 0 - - - - - - - None None - -
06/24/2017 04:33 Dry 54.3F - 96F - 0 - - - - - - - None None - -
06/24/2017 04:31 Dry 54.5F - 96F - 0 - - - - - - - None None - -
06/24/2017 04:23 Dry 54.7F - 96F - 0 - - - - - - - None None - -
06/24/2017 04:15 Dry 54.9F - 125F - 0 - - - - - - - None None - -
06/24/2017 04:12 Dry 55.0F - 121F - 0 - - - - - - - None None - -
06/24/2017 04:02 Dry 55.2F - 124F - 0 - - - - - - - None None - -
06/24/2017 04:01 Dry 55.2F - 124F - 0 - - - - - - - None None - -
06/24/2017 03:52 Dry 55.4F - 117F - 0 - - - - - - - None None - -
06/24/2017 03:46 Dry 55.6F - 123F - 0 - - - - - - - None None - -
Date/Time
(MDT)
Sf
Temp Chem Water Layer Surface Precipitation
Sfc Pvt Sub Frz Factor Pct Dpth DpthThk IcePct Cond Salin FI Type Intens Accum Rate
06/24/2017 03:42 Dry 55.8F - 118F - 0 - - - - - - - None None - -
06/24/2017 03:32 Dry 55.9F - 122F - 0 - - - - - - - None None - -
06/24/2017 03:31 Dry 56.1F - 111F - 0 - - - - - - - None None - -
06/24/2017 03:22 Dry 56.3F - 114F - 0 - - - - - - - None None - -
06/24/2017 03:15 Dry 56.5F - 118F - 0 - - - - - - - None None - -
06/24/2017 03:12 Dry 56.7F - 109F - 0 - - - - - - - None None - -
06/24/2017 03:02 Dry 56.8F - 112F - 0 - - - - - - - None None - -
06/24/2017 03:00 Dry 56.8F - 115F - 0 - - - - - - - None None - -
06/24/2017 02:52 Dry 57.2F - 114F - 0 - - - - - - - None None - -
06/24/2017 02:45 Dry 57.2F - 119F - 0 - - - - - - - None None - -
06/24/2017 02:42 Dry 57.6F - 121F - 0 - - - - - - - None None - -
06/24/2017 02:32 Dry 57.9F - 121F - 0 - - - - - - - None None - -
06/24/2017 02:31 Dry 57.9F - 123F - 0 - - - - - - - None None - -
06/24/2017 02:22 Dry 58.1F - 124F - 0 - - - - - - - None None - -
06/24/2017 02:12 Dry 58.3F - 125F - 0 - - - - - - - None None - -
Date/Time
(MDT)
Sf
Temp Chem Water Layer Surface Precipitation
Sfc Pvt Sub Frz Factor Pct Dpth DpthThk IcePct Cond Salin FI Type Intens Accum Rate
06/24/2017 02:02 Dry 58.8F - 129F - 0 - - - - - - - None None - -
06/24/2017 01:52 Dry 59.0F - 119F - 0 - - - - - - - None None - -
06/24/2017 01:46 Dry 59.2F - 117F - 0 - - - - - - - None None - -
06/24/2017 01:42 Dry 59.4F - 116F - 0 - - - - - - - None None - -
06/24/2017 01:32 Dry 59.7F - 119F - 0 - - - - - - - None None - -
06/24/2017 01:31 Dry 59.7F - 121F - 0 - - - - - - - None None - -
06/24/2017 01:22 Dry 60.3F - 114F - 0 - - - - - - - None None - -
06/24/2017 01:15 Dry 60.3F - 79F - 0 - - - - - - - None None - -
06/24/2017 01:12 Dry 60.4F - 120F - 0 - - - - - - - None None - -
06/24/2017 01:02 Dry 60.8F - 131F - 0 - - - - - - - None None - -
06/24/2017 01:01 Dry 60.8F - 133F - 0 - - - - - - - None None - -
06/24/2017 00:52 Dry 61.3F - 132F - 0 - - - - - - - None None - -
06/24/2017 00:45 Dry 61.3F - 132F - 0 - - - - - - - None None - -
06/24/2017 00:42 Dry 61.5F - 139F - 0 - - - - - - - None None - -
06/24/2017 00:31 Dry 61.9F - 129F - 0 - - - - - - - None None - -
Date/Time
(MDT)
Sf
Temp Chem Water Layer Surface Precipitation
Sfc Pvt Sub Frz Factor Pct Dpth DpthThk IcePct Cond Salin FI Type Intens Accum Rate
06/24/2017 00:30 Dry 61.9F - 134F - 0 - - - - - - - None None - -
06/24/2017 00:21 Dry 62.4F - 131F - 0 - - - - - - - None None - -
06/24/2017 00:15 Dry 62.6F - 132F - 0 - - - - - - - None None - -
06/24/2017 00:11 Dry 62.8F - 130F - 0 - - - - - - - None None - -
06/24/2017 00:01 Dry 63.1F - 132F - 0 - - - - - - - None None - -
06/24/2017 00:00 Dry 63.3F - 134F - 0 - - - - - - - None None - -
06/23/2017 23:51 Dry 63.7F - 135F - 0 - - - - - - - None None - -
06/23/2017 23:45 Dry 63.9F - 134F - 0 - - - - - - - None None - -
06/23/2017 23:41 Dry 64.0F - 128F - 0 - - - - - - - None None - -
06/23/2017 23:31 Dry 64.4F - 127F - 0 - - - - - - - None None - -
06/23/2017 23:31 Dry 64.6F - 127F - 0 - - - - - - - None None - -
06/23/2017 23:21 Dry 64.9F - 126F - 0 - - - - - - - None None - -
06/23/2017 23:16 Dry 65.3F - 132F - 0 - - - - - - - None None - -
06/23/2017 23:11 Dry 65.7F - 134F - 0 - - - - - - - None None - -
06/23/2017 23:01 Dry 66.2F - 121F - 0 - - - - - - - None None - -
Date/Time
(MDT)
Sf
Temp Chem Water Layer Surface Precipitation
Sfc Pvt Sub Frz Factor Pct Dpth DpthThk IcePct Cond Salin FI Type Intens Accum Rate
06/23/2017 23:01 Dry 66.2F - 125F - 0 - - - - - - - None None - -
06/23/2017 22:51 Dry 66.7F - 129F - 0 - - - - - - - None None - -
06/23/2017 22:47 Dry 67.1F - 125F - 0 - - - - - - - None None - -
06/23/2017 22:41 Dry 67.3F - 122F - 0 - - - - - - - None None - -
06/23/2017 22:31 Dry 68.0F - 127F - 0 - - - - - - - None None - -
06/23/2017 22:31 Dry 68.2F - 127F - 0 - - - - - - - None None - -
06/23/2017 22:21 Dry 68.9F - 110F - 0 - - - - - - - None None - -
06/23/2017 22:16 Dry 69.1F - 105F - 0 - - - - - - - None None - -
06/23/2017 22:11 Dry 69.4F - 105F - 0 - - - - - - - None None - -
06/23/2017 22:01 Dry 70.5F - 121F - 0 - - - - - - - None None - -
06/23/2017 22:00 Dry 70.5F - 123F - 0 - - - - - - - None None - -
06/23/2017 21:51 Dry 71.2F - 120F - 0 - - - - - - - None None - -
06/23/2017 21:45 Dry 71.6F - 108F - 0 - - - - - - - None None - -
06/23/2017 21:41 Dry 72.1F - 111F - 0 - - - - - - - None None - -
Change End Date:

Copyright © 1998-2015 Vaisala, Inc.
All Rights Reserved
Send comments about the data to:
SCAN Web ® is a registered trademark of Vaisala, Inc.
SCAN Web Version 6.0